User: anonymous   Login
Location: Newark
(50.0306°N, 2.3272°E)
Time: 15:42:16
(UTC+00:00)
Language:

S-56A Canister/Altair - Orbit

View from above orbital plane
View from above orbital plane
View from above satellite
View from above satellite

Ground track
Ground track

The orbit data is extracted from the following two-line orbital elements,

1    82U 61004B   19348.47909274 -.00000011  00000-0  16047-4 0  9993
2    82  38.8613 167.0003 1175228 266.0113  80.5716 12.26056537784983
Epoch (UTC): 14 December 2019 11:29:53
Eccentricity: 0.1175228
inclination: 38.8613°
perigee height: 632 km
apogee height: 2500 km
right ascension of ascending node: 167.0003°
argument of perigee: 266.0113°
revolutions per day: 12.26056537
mean anomaly at epoch: 80.5716°
orbit number at epoch: 78498

The dashed part of the orbit path shows where the satellite is in the earth's shadow,  

DLR